Regional Weather Roundup
Issued by NWS Upton, NY

Home | Current Version | Previous Version | Text Only | Print | Product List | Glossary On
Versions: 1 2 3 4 5 6 7 8 9 10 11 12 13 14 15 16 17 18 19 20 21 22 23 24 25 26 27 28 29 30 31 32 33 34 35 36 37 38 39 40 41 42 43 44 45 46 47 48 49 50
000
ASUS41 KOKX 012205
RWROKX

REGIONAL WEATHER ROUNDUP
NATIONAL WEATHER SERVICE NEW YORK NY
600 PM EDT MON SEP 01 2014

NOTE: "FAIR" INDICATES FEW OR NO CLOUDS BELOW 12,000 FEET WITH NO
SIGNIFICANT WEATHER AND/OR OBSTRUCTIONS TO VISIBILITY.

NYZ071-072-176-178-NJZ106-104-012300-
NEW YORK CITY METRO AREA


CITY           SKY/WX    TMP DP  RH WIND       PRES   REMARKS
CENTRAL PARK   PTSUNNY   82  71  69 VRB6      29.95S
LAGUARDIA APRT PTSUNNY   82  72  71 S12       29.92S
KENNEDY INTL   PTSUNNY   79  73  82 S7        29.95S
NEWARK/LIBERTY PTSUNNY   87  71  58 S8        29.91F HX  93
BRNX BOT. GARD   N/A     82  72  69 SE10      29.93S
TETERBORO      PTSUNNY   87  70  56 S9        29.90F HX  92
$$

NYZ177-179-078>081-012300-
LONG ISLAND NEW YORK

CITY           SKY/WX    TMP DP  RH WIND       PRES   REMARKS
FARMINGDALE    MOSUNNY   80  72  76 SW12      29.95R
ISLIP          MOSUNNY   81  71  71 SW6       29.93S
SHIRLEY        MOSUNNY   80  70  71 SW10      29.95S
WESTHAMPTON    SUNNY     79  70  74 SW7       29.96S
MONTAUK POINT    N/A     78  71  79 SW8       29.96R
$$

NYZ052-065-067-012300-
HUDSON VALLEY

CITY           SKY/WX    TMP DP  RH WIND       PRES   REMARKS
WHITE PLAINS   PTSUNNY   82  71  69 S8        29.94S
NEWBURGH       PTSUNNY   84  72  65 W9        29.95S
MONTGOMERY     MOSUNNY   84  69  60 S7        29.93S
POUGHKEEPSIE   MOSUNNY   86  70  58 SW3       29.91S HX  90
ALBANY         PTSUNNY   84  66  54 SE3       29.91S
$$

NJZ001-105-106-008-010-013-015-019>022-104-012300-
NEW JERSEY

CITY           SKY/WX    TMP DP  RH WIND       PRES   REMARKS
NEWARK/LIBERTY PTSUNNY   87  71  58 S8        29.91F HX  93
TETERBORO      PTSUNNY   87  70  56 S9        29.90F HX  92
CALDWELL       SUNNY     87  68  52 VRB5      29.92F HX  90
MORRISTOWN     PTSUNNY   86  70  58 SW9       29.93S HX  90
SOMERVILLE     PTSUNNY   85  71  63 VRB6      29.91F HX  90
LINDEN         MOCLDY    91  72  53 W7        29.94S HX  98
SUSSEX         SUNNY     87  70  56 SW5       29.94F HX  92
ANDOVER          N/A     84  70  62 SW6       29.94F
TRENTON        PTSUNNY   86  71  60 S6        29.93S HX  91
MILLVILLE      PTSUNNY   82  73  74 VRB6      29.95S
ATLANTIC CITY  MOSUNNY   82  71  69 S12       29.96R
WRIGHTSTOWN    CLOUDY    83  74  76 NE3       29.92S
TOMS RIVER     PTSUNNY   84  73  70 S3        29.95S HX  91
BELMAR         CLOUDY    81  73  78 S6        29.95S
$$

PAZ047>061-062-071-012300-
EASTERN PENNSYLVANIA

CITY           SKY/WX    TMP DP  RH WIND       PRES   REMARKS
PHILADELPHIA   PTSUNNY   88  71  57 SW9       29.93F HX  94
ALLENTOWN      MOSUNNY   87  69  54 SW9       29.93F HX  91
SCRANTON       MOSUNNY   83  67  58 SW7       29.95S
$$

CTZ002-004>006-009-010-012-RIZ004-006-007-MAZ004-011-015-012300-
SOUTHERN NEW ENGLAND
 IN CT

CITY           SKY/WX    TMP DP  RH WIND       PRES   REMARKS
BRADLEY INTL   MOSUNNY   88  67  49 W5        29.90F HX  91
HARTFORD       CLOUDY    82  72  71 S5        29.91S
DANBURY        MOSUNNY   83  69  62 W3        29.95F
WTRBRY/OXFORD  MOSUNNY   82  70  65 SW5       29.99S
BRIDGEPORT     MOSUNNY   82  73  74 SE6       29.93S
MERIDEN        MOSUNNY   85  69  58 SW7       29.93S
NEW HAVEN      MOSUNNY   84  72  67 SE6       29.93S
CHESTER        FAIR      82  72  69 SW5       29.95F
GROTON         SUNNY     77  72  84 S3        29.93S
WILLIMANTIC    PTSUNNY   81  73  76 SW3       29.93F

 IN RI

CITY           SKY/WX    TMP DP  RH WIND       PRES   REMARKS
PROVIDENCE     MOSUNNY   85  70  60 W12       29.92S
BLOCK ISLAND   SUNNY     75  70  83 SW13      29.95F
WESTERLY       SUNNY     80  70  71 SW7       29.95S

 IN MA

CITY           SKY/WX    TMP DP  RH WIND       PRES   REMARKS
BOSTON         MOSUNNY   80  70  71 E3        29.91S
WORCESTER      SUNNY     80  68  66 W5        29.97S
WESTFIELD      MOSUNNY   87  64  46 W5        29.91S
PROVINCETOWN   MOSUNNY   79  72  78 S8        29.92F
NANTUCKET      MOSUNNY   72  68  87 SW8       29.95S
$$

ANZ330-335-338-340-345-350-353-355-012300-
COASTAL MARINE OBSERVATIONS


STATION/POSITION TIME  SKY/WX   TEMP    WIND        PRES    VSBY  WAVE
                                AIR SEA DIR/SP/G                  HT/PER
                 (UTC)          (F)     (DEG/KT/KT) (MB)    (MI)  (FT/S)
NY HARB ENTRANCE NOT AVBL
4S FIRE IS       NOT AVBL
23SW MTP         2200                                 N/A           3/ 6
HUDSON CANYON    2200            75 75  220/ 10/ 12 1015.0          3/ 5
EXECUTION ROCKS  2200            82 75  210/ 10/ 14   N/A
WESTERN LI SOUND 2200            82     190/  6/  6   N/A           1/ 3
CENTRAL LI SOUND 2100            79 77  170/  2/  4   N/A           1
EASTERN LI SOUND 2100            74 71  200/  2/  4   N/A
ROBBINS REEF     2200            78     180/ 10/ 11   N/A
$$


>>>>>>>>>>>>>>>>>>>>>>>>>>>> KEY <<<<<<<<<<<<<<<<<<<<<<<<<<<
>                                                          <
>     SKY/WX - SKY CONDITION/PRESENT WEATHER               <
>     TMP    - TEMPERATURE IN FAHRENHEIT                   <
>     DP     - DEWPOINT IN FAHRENHEIT                      <
>     RH     - RELATIVE HUMIDITY IN PERCENT                <
>     WIND   - DIRECTION AND SPEED IN MPH                  <
>     PRES   - MEAN SEA LEVEL PRESSURE IN INCHES OF HG     <
>     WCI    - WIND CHILL INDEX                            <
>     VSB    - VISIBILITY IN MILES                         <
>     HX     - HEAT INDEX                                  <
>     TC     - TEMPERATURE IN CELSIUS                      <
>     VRB    - VARIABLE WIND DIRECTION                     <
>                                                          <
>>>>>>>>>>>>>>>>>>>>>>>>>>>> KEY <<<<<<<<<<<<<<<<<<<<<<<<<<<





USA.gov is the U.S. government's official web portal to all federal, state and local government web resources and services.